Flag for Cuba

Past Weather in Provincia de Ciego de Ávila, Cuba — Yesterday and Last 2 Weeks

Now
88 °F

Partly sunny.


Feels Like: 94 °F
Forecast: 86 / 74 °F
Wind: 13 mph from East

Location: Santa Bárbara

Current Time: Oct 14, 2019 at 3:05:47 pm

Latest Report: Oct 14, 2019 at 1:50 pm


Visibility: 6 mi

Pressure: 30.01 "Hg

Humidity: 59%

Dew Point: 72 °F

Location of Provincia de Ciego de ÁvilaLocation

Past Weather in Provincia de Ciego de Ávila — Graph

°F

Provincia de Ciego de Ávila Temperature Yesterday

Maximum temperature yesterday: 88 °F (at 1:52 pm)
Minimum temperature yesterday: 73 °F (at 3:50 am)
Average temperature yesterday: 78 °F

High & Low Weather Summary for the Past Weeks

 TemperatureHumidityPressure
High91 °F (Oct 9, 2:50 pm)94% (Sep 30, 12:50 am)30.04 "Hg (Sep 30, 12:50 am)
Low70 °F (Sep 30, 12:50 am)49% (Oct 9, 1:50 pm)29.77 "Hg (Oct 1, 3:53 pm)
Average78 °F84%29.91 "Hg
* Reported Sep 29 1:50 pm — Oct 14 1:50 pm, Provincia de Ciego de Ávila. Weather by CustomWeather, © 2019

Note: Actual official high and low records may vary slightly from our data, if they occured in-between our weather recording intervals... More about our weather records

Advertising

Provincia de Ciego de Ávila Weather History for the Previous 24 Hours

Scroll right to see more
 ConditionsComfort  
Time TempWeatherWind HumidityBarometerVisibility
1:50 pm
Mon, Oct 14
88 °FPartly sunny.13 mph59%30.01 "Hg6 mi
12:50 pm86 °FPartly sunny.13 mph62%30.01 "Hg6 mi
11:50 am84 °FPartly sunny.10 mph66%30.04 "Hg6 mi
10:50 am84 °FScattered clouds.10 mph70%30.04 "Hg6 mi
9:50 am82 °FPassing clouds.9 mph74%30.04 "Hg6 mi
8:50 am79 °FPassing clouds.5 mph84%30.01 "Hg6 mi
7:50 am72 °FScattered clouds.3 mph94%30.01 "Hg6 mi
6:50 am70 °FPassing clouds.1 mph94%30.01 "Hg5 mi
5:50 am72 °FPassing clouds.2 mph94%29.98 "Hg6 mi
4:50 am72 °FPassing clouds.1 mph94%29.95 "Hg6 mi
3:50 am72 °FPassing clouds.1 mph94%29.95 "Hg6 mi
2:50 am73 °FPassing clouds.No wind94%29.98 "Hg6 mi
1:50 am75 °FPassing clouds.3 mph89%30.01 "Hg6 mi
12:50 am75 °FPassing clouds.3 mph94%30.01 "Hg6 mi
11:50 pm
Sun, Oct 13
75 °FPassing clouds.5 mph94%30.01 "Hg6 mi
10:50 pm75 °FPassing clouds.2 mph94%30.01 "Hg6 mi
9:51 pm75 °FPassing clouds.3 mph94%30.01 "Hg6 mi
8:52 pm75 °FLight rain. Passing clouds.3 mph89%29.98 "Hg5 mi
7:51 pm77 °FSprinkles. Passing clouds.8 mph89%29.98 "Hg4 mi
6:51 pm79 °FScattered clouds.8 mph84%29.95 "Hg6 mi
5:51 pm81 °FScattered clouds.10 mph79%29.95 "Hg6 mi
4:51 pm77 °FSprinkles. Broken clouds.14 mph83%29.92 "Hg4 mi
3:50 pm86 °FPartly sunny.8 mph66%29.92 "Hg6 mi
Weather by CustomWeather, © 2019

See weather overview